Weather History for KMNN - December, 2012

Change the Weather History Date:

Saturday, December 29, 2012

  Actual Average (KDLZ) Record (KDLZ)
Temperature  
Mean Temperature 28 °F -  
Max Temperature 30 °F 36 °F 67 °F (1984)
Min Temperature 26 °F 19 °F -4 °F (1961)
Degree Days  
Heating Degree Days 37    
Moisture  
Dew Point 25 °F    
Average Humidity 92    
Maximum Humidity 100    
Minimum Humidity 85    
Precipitation  
Precipitation 0.11 in - - ()
Sea Level Pressure  
Sea Level Pressure 29.83 in    
Wind  
Wind Speed 7 mph (NNW)    
Max Wind Speed 13 mph    
Max Gust Speed -    
Visibility 2 miles    
Events Snow    
Averages and records for this station are not official NWS values.
T = Trace of Precipitation, MM = Missing Value Source: NWS Daily Summary

Daily Weather History Graph

Daily Weather History Graph

Search for Another Location

Airport or City:

Trip Planner

Search our weather history database for the weather conditions in past years. The results will help you decide how hot, cold, wet, or windy it might be!

Date:

Astronomy

Dec. 29, 2012 Rise Set
Actual Time 7:55 AM EST 5:13 PM EST
Civil Twilight 7:24 AM EST 5:44 PM EST
Nautical Twilight 6:50 AM EST 6:18 PM EST
Astronomical Twilight 6:17 AM EST 6:52 PM EST
Moon 6:46 PM EST (12/29) 8:27 AM EST (12/29)
Length of Visible Light 10h 19m
Length of Day
9h 18m
Full, 98% of the Moon is Illuminated
Dec 29
Full
Jan 4
Last Quarter
Jan 11
New
Jan 18
First Quarter
Jan 26
Full

Hourly Weather History & Observations

Time (EST) Temp. Windchill Dew Point Humidity Pressure Visibility Wind Dir Wind Speed Gust Speed Precip Events Conditions
12:53 AM 27.0 °F - 23.0 °F 85% 29.90 in 8.0 mi Calm Calm - N/A   Overcast
1:34 AM 26.6 °F 19.1 °F 24.8 °F 93% 29.81 in 2.0 mi East 6.9 mph - 0.00 in Snow Light Snow
1:46 AM 26.6 °F 18.2 °F 24.8 °F 93% 29.82 in 1.8 mi ESE 8.1 mph - 0.00 in Snow Light Snow
1:53 AM 27.0 °F 19.5 °F 25.0 °F 92% 29.85 in 1.2 mi ESE 6.9 mph - 0.00 in Snow Light Snow
2:02 AM 26.6 °F 18.2 °F 24.8 °F 93% 29.79 in 1.0 mi East 8.1 mph - 0.00 in Snow Light Snow
2:10 AM 26.6 °F 18.2 °F 24.8 °F 93% 29.78 in 0.8 mi East 8.1 mph - 0.00 in Snow Light Snow
2:21 AM 26.6 °F 20.0 °F 24.8 °F 93% 29.80 in 1.0 mi East 5.8 mph - 0.01 in Snow Light Snow
2:46 AM 26.6 °F 21.2 °F 24.8 °F 93% 29.79 in 0.8 mi East 4.6 mph - 0.02 in Snow Light Snow
2:53 AM 27.0 °F 21.6 °F 25.0 °F 92% 29.82 in 0.8 mi East 4.6 mph - 0.03 in Snow Light Snow
3:26 AM 26.6 °F - 26.6 °F 100% 29.79 in 1.0 mi Calm Calm - 0.02 in Snow Light Snow
3:45 AM 26.6 °F 19.1 °F 24.8 °F 93% 29.76 in 1.0 mi NE 6.9 mph - 0.03 in Snow Light Snow
3:53 AM 27.0 °F 20.5 °F 26.1 °F 96% 29.81 in 1.5 mi ENE 5.8 mph - 0.03 in Snow Light Snow
4:01 AM 26.6 °F 20.0 °F 24.8 °F 93% 29.76 in 1.8 mi NE 5.8 mph - 0.00 in Snow Light Snow
4:08 AM 26.6 °F 19.1 °F 24.8 °F 93% 29.74 in 2.5 mi NE 6.9 mph - 0.00 in Snow Light Snow
4:16 AM 26.6 °F 19.1 °F 24.8 °F 93% 29.74 in 3.0 mi NE 6.9 mph - 0.00 in Snow Light Snow
4:26 AM 26.6 °F 21.2 °F 24.8 °F 93% 29.74 in 3.0 mi NNE 4.6 mph - 0.00 in Snow Light Snow
4:35 AM 26.6 °F 20.0 °F 24.8 °F 93% 29.74 in 3.0 mi NNE 5.8 mph - 0.00 in Snow Light Snow
4:44 AM 26.6 °F 19.1 °F 24.8 °F 93% 29.73 in 3.0 mi NNE 6.9 mph - 0.00 in Snow Light Snow
4:53 AM 27.0 °F 18.7 °F 25.0 °F 92% 29.77 in 3.0 mi NNE 8.1 mph - 0.00 in Snow Light Snow
5:38 AM 26.6 °F 17.5 °F 24.8 °F 93% 29.72 in 4.0 mi North 9.2 mph - 0.00 in Snow Light Snow
5:42 AM 26.6 °F 17.5 °F 24.8 °F 93% 29.72 in 4.0 mi North 9.2 mph - 0.00 in Snow Light Snow
5:53 AM 26.1 °F 15.6 °F 24.1 °F 92% 29.76 in 3.0 mi North 11.5 mph - 0.00 in Snow Light Snow
6:03 AM 26.6 °F 16.2 °F 23.0 °F 86% 29.72 in 2.5 mi North 11.5 mph - 0.00 in Snow Light Snow
6:20 AM 26.6 °F 16.8 °F 23.0 °F 86% 29.72 in 2.5 mi North 10.4 mph - 0.00 in Snow Light Snow
6:34 AM 26.6 °F 18.2 °F 24.8 °F 93% 29.72 in 1.5 mi NNE 8.1 mph - 0.00 in Snow Light Snow
6:53 AM 26.1 °F 16.8 °F 24.1 °F 92% 29.77 in 1.8 mi North 9.2 mph - 0.00 in Snow Light Snow
7:27 AM 26.6 °F 18.2 °F 24.8 °F 93% 29.73 in 0.8 mi North 8.1 mph - 0.01 in Snow Light Snow
7:42 AM 26.6 °F 19.1 °F 24.8 °F 93% 29.73 in 0.8 mi North 6.9 mph - 0.02 in Snow Light Snow
7:53 AM 26.1 °F 18.4 °F 24.1 °F 92% 29.77 in 0.8 mi North 6.9 mph - 0.03 in Snow Light Snow
8:01 AM 26.6 °F 19.1 °F 24.8 °F 93% 29.73 in 1.0 mi North 6.9 mph - 0.00 in Snow Light Snow
8:05 AM 26.6 °F 19.1 °F 24.8 °F 93% 29.73 in 0.8 mi North 6.9 mph - 0.00 in Snow Light Snow
8:31 AM 26.6 °F 20.0 °F 24.8 °F 93% 29.74 in 1.0 mi NNW 5.8 mph - 0.01 in Snow Light Snow
8:39 AM 26.6 °F 20.0 °F 24.8 °F 93% 29.74 in 0.8 mi NNW 5.8 mph - 0.01 in Snow Light Snow
8:50 AM 26.6 °F 21.2 °F 24.8 °F 93% 29.74 in 1.0 mi NNW 4.6 mph - 0.01 in Snow Light Snow
8:53 AM 27.0 °F 21.6 °F 25.0 °F 92% 29.78 in 1.0 mi NNW 4.6 mph - 0.01 in Snow Light Snow
9:01 AM 26.6 °F 20.0 °F 24.8 °F 93% 29.75 in 1.2 mi NNW 5.8 mph - 0.00 in Snow Light Snow
9:18 AM 26.6 °F 21.2 °F 24.8 °F 93% 29.75 in 1.2 mi NW 4.6 mph - 0.01 in Snow Light Snow
9:42 AM 26.6 °F 18.2 °F 24.8 °F 93% 29.76 in 2.0 mi WNW 8.1 mph - 0.01 in Snow Light Snow
9:53 AM 27.0 °F 20.5 °F 25.0 °F 92% 29.80 in 2.5 mi NW 5.8 mph - 0.01 in   Overcast
10:01 AM 26.6 °F 20.0 °F 24.8 °F 93% 29.76 in 3.0 mi NW 5.8 mph - N/A   Overcast
10:25 AM 26.6 °F 16.8 °F 24.8 °F 93% 29.78 in 3.0 mi NW 10.4 mph - N/A   Overcast
10:53 AM 28.0 °F 19.3 °F 26.1 °F 92% 29.83 in 2.0 mi NW 9.2 mph - 0.00 in Snow Light Snow
11:11 AM 28.4 °F 19.1 °F 26.6 °F 93% 29.79 in 1.0 mi NW 10.4 mph - 0.00 in Snow Light Snow
11:27 AM 28.4 °F 19.1 °F 26.6 °F 93% 29.79 in 1.5 mi NW 10.4 mph - 0.00 in Snow Light Snow
11:38 AM 28.4 °F 19.1 °F 26.6 °F 93% 29.79 in 2.0 mi NW 10.4 mph - 0.00 in   Overcast
11:46 AM 28.4 °F 19.7 °F 26.6 °F 93% 29.79 in 2.0 mi WNW 9.2 mph - 0.00 in   Overcast
11:53 AM 28.9 °F 19.8 °F 27.0 °F 92% 29.82 in 3.0 mi NW 10.4 mph - 0.00 in   Overcast
12:53 PM 30.0 °F 20.0 °F 27.0 °F 88% 29.83 in 5.0 mi WNW 12.7 mph - N/A   Overcast
1:34 PM 28.4 °F 18.5 °F 26.6 °F 93% 29.80 in 3.0 mi WNW 11.5 mph - N/A   Overcast
1:53 PM 28.9 °F 18.6 °F 27.0 °F 92% 29.84 in 3.0 mi WNW 12.7 mph - N/A   Overcast
2:22 PM 28.4 °F 18.0 °F 26.6 °F 93% 29.81 in 4.0 mi WNW 12.7 mph - N/A   Overcast
2:37 PM 28.4 °F 18.5 °F 26.6 °F 93% 29.81 in 2.5 mi WNW 11.5 mph - N/A   Overcast
2:53 PM 28.0 °F 18.6 °F 26.1 °F 92% 29.86 in 2.5 mi WNW 10.4 mph - N/A   Overcast
3:53 PM 28.0 °F 20.0 °F 25.0 °F 88% 29.90 in 2.0 mi WNW 8.1 mph - N/A   Overcast
4:53 PM 28.0 °F 18.6 °F 25.0 °F 88% 29.93 in 2.0 mi WNW 10.4 mph - 0.00 in Snow Light Snow
5:23 PM 26.6 °F 17.5 °F 24.8 °F 93% 29.90 in 1.8 mi NW 9.2 mph - 0.01 in Snow Light Snow
5:41 PM 26.6 °F 19.1 °F 24.8 °F 93% 29.90 in 2.0 mi WNW 6.9 mph - 0.01 in Snow Light Snow
6:18 PM 26.6 °F 16.8 °F 24.8 °F 93% 29.92 in 1.8 mi WNW 10.4 mph - 0.00 in Snow Light Snow
6:53 PM 27.0 °F 18.0 °F 25.0 °F 92% 29.98 in 1.5 mi WNW 9.2 mph - 0.00 in Snow Light Snow
7:04 PM 26.6 °F 16.2 °F 24.8 °F 93% 29.94 in 1.8 mi WNW 11.5 mph - 0.00 in Snow Light Snow
7:24 PM 26.6 °F 16.2 °F 24.8 °F 93% 29.95 in 2.0 mi WNW 11.5 mph - 0.00 in Snow Light Snow
7:53 PM 27.0 °F 18.0 °F 25.0 °F 92% 30.00 in 2.0 mi WNW 9.2 mph - 0.00 in Snow Light Snow
8:44 PM 26.6 °F 17.5 °F 24.8 °F 93% 29.98 in 1.8 mi WNW 9.2 mph - 0.00 in Snow Light Snow
8:53 PM 27.0 °F 17.3 °F 25.0 °F 92% 30.03 in 1.8 mi NW 10.4 mph - 0.00 in Snow Light Snow
9:05 PM 26.6 °F 18.2 °F 24.8 °F 93% 29.99 in 2.0 mi NW 8.1 mph - 0.00 in Snow Light Snow
9:42 PM 26.6 °F 17.5 °F 24.8 °F 93% 30.00 in 1.8 mi WNW 9.2 mph - 0.00 in Snow Light Snow
9:53 PM 27.0 °F 17.3 °F 25.0 °F 92% 30.05 in 2.0 mi WNW 10.4 mph - 0.00 in Snow Light Snow
10:53 PM 27.0 °F 17.3 °F 25.0 °F 92% 30.08 in 2.0 mi WNW 10.4 mph - 0.00 in Snow Light Snow
11:25 PM 26.6 °F 16.8 °F 24.8 °F 93% 30.05 in 2.5 mi NW 10.4 mph - 0.00 in Snow Light Snow
11:32 PM 26.6 °F 16.2 °F 24.8 °F 93% 30.06 in 3.0 mi NW 11.5 mph - 0.00 in Snow Light Snow
11:53 PM 27.0 °F 18.0 °F 25.0 °F 92% 30.11 in 5.0 mi WNW 9.2 mph - 0.00 in   Overcast